QPF
0.06 0.06 0.06 0.06 0.08 0.10 0.12 0.14 0.13 0.11 0.08 0.08 0.08 0.08 0.10 0.12 0.14 0.17 0.18 0.20 0.18 0.13 0.08 0.06 0.04 0.03 0.03 0.01 0.01 0.01 0.01 0.03 0.04 0.04 0.04 0.04 0.04 0.05
0.06 0.05 0.04 0.06 0.07 0.08 0.08 0.09 0.10 0.11 0.07 0.06 0.08 0.07 0.09 0.13 0.17 0.17 0.17 0.15 0.12 0.10 0.08 0.07 0.05 0.03 0.04 0.03 0.01 0.01 0.01 0.02 0.01 0.02 0.03 0.05 0.05 0.04
0.06 0.06 0.05 0.06 0.05 0.06 0.07 0.08 0.10 0.12 0.10 0.06 0.07 0.11 0.12 0.13 0.14 0.14 0.12 0.10 0.11 0.10 0.09 0.07 0.05 0.05 0.05 0.03 0.02 0.02 0.02 0.02 0.01 0.01 0.02 0.03 0.05 0.05
0.05 0.05 0.04 0.04 0.03 0.04 0.05 0.06 0.08 0.11 0.11 0.10 0.08 0.08 0.13 0.13 0.12 0.12 0.10 0.10 0.11 0.11 0.10 0.07 0.07 0.06 0.06 0.04 0.03 0.02 0.03 0.03 0.03 0.02 0.02 0.02 0.02 0.02
0.03 0.02 0.02 0.03 0.03 0.03 0.04 0.03 0.04 0.06 0.07 0.08 0.09 0.07 0.11 0.12 0.12 0.13 0.10 0.10 0.12 0.13 0.12 0.10 0.10 0.09 0.07 0.05 0.03 0.02 0.02 0.02 0.03 0.04 0.04 0.03 0.03 0.02
0.04 0.03 0.03 0.03 0.02 0.03 0.03 0.03 0.04 0.05 0.06 0.08 0.09 0.10 0.09 0.08 0.10 0.11 0.10 0.10 0.11 0.12 0.14 0.15 0.15 0.13 0.10 0.07 0.04 0.03 0.02 0.02 0.02 0.03 0.03 0.04 0.04 0.04
0.05 0.05 0.04 0.03 0.03 0.03 0.03 0.02 0.04 0.04 0.05 0.06 0.06 0.06 0.06 0.07 0.09 0.11 0.09 0.09 0.11 0.10 0.09 0.11 0.12 0.09 0.07 0.05 0.04 0.04 0.03 0.03 0.02 0.02 0.02 0.02 0.02 0.03
0.05 0.04 0.03 0.04 0.03 0.03 0.02 0.02 0.03 0.03 0.04 0.05 0.05 0.05 0.05 0.07 0.06 0.08 0.10 0.09 0.07 0.05 0.06 0.06 0.05 0.05 0.04 0.04 0.04 0.04 0.05 0.05 0.03 0.02 0.02 0.01 0.01 0.01
0.03 0.03 0.02 0.03 0.03 0.02 0.02 0.02 0.02 0.03 0.03 0.04 0.04 0.05 0.05 0.06 0.06 0.05 0.08 0.11 0.10 0.08 0.07 0.05 0.04 0.05 0.05 0.05 0.06 0.05 0.05 0.04 0.04 0.03 0.03 0.02 0.02 0.01
0.03 0.03 0.03 0.03 0.04 0.03 0.03 0.03 0.02 0.03 0.05 0.04 0.03 0.04 0.06 0.06 0.06 0.05 0.06 0.07 0.07 0.06 0.07 0.06 0.07 0.06 0.05 0.06 0.07 0.06 0.04 0.04 0.04 0.04 0.03 0.03 0.02 0.02
0.03 0.03 0.03 0.02 0.03 0.05 0.04 0.04 0.04 0.03 0.04 0.03 0.02 0.03 0.05 0.06 0.08 0.09 0.07 0.07 0.07 0.05 0.08 0.09 0.08 0.07 0.07 0.06 0.06 0.06 0.06 0.05 0.04 0.03 0.03 0.02 0.02 0.02
0.04 0.03 0.02 0.02 0.02 0.04 0.03 0.03 0.03 0.02 0.02 0.02 0.02 0.02 0.03 0.04 0.07 0.08 0.08 0.08 0.07 0.06 0.08 0.10 0.09 0.09 0.09 0.08 0.06 0.05 0.04 0.04 0.04 0.02 0.02 0.01 0.01 0.01
0.04 0.02 0.02 0.02 0.02 0.03 0.03 0.02 0.02 0.03 0.03 0.03 0.02 0.02 0.02 0.03 0.05 0.06 0.09 0.09 0.08 0.06 0.06 0.08 0.07 0.08 0.09 0.08 0.06 0.05 0.04 0.03 0.03 0.03 0.02 0.02 0.02 0.02
0.02 0.01 0.02 0.02 0.03 0.03 0.03 0.03 0.04 0.03 0.03 0.03 0.02 0.02 0.02 0.03 0.04 0.05 0.06 0.07 0.06 0.06 0.07 0.07 0.06 0.06 0.06 0.06 0.06 0.05 0.04 0.03 0.03 0.03 0.04 0.05 0.05 0.05
0.02 0.02 0.03 0.03 0.03 0.04 0.04 0.04 0.04 0.03 0.02 0.02 0.03 0.03 0.03 0.03 0.04 0.04 0.05 0.06 0.07 0.08 0.09 0.08 0.07 0.07 0.07 0.06 0.05 0.04 0.04 0.04 0.04 0.04 0.05 0.05 0.06 0.06
0.02 0.03 0.03 0.04 0.04 0.04 0.05 0.05 0.04 0.04 0.04 0.04 0.04 0.05 0.04 0.03 0.03 0.03 0.04 0.06 0.08 0.08 0.10 0.10 0.08 0.08 0.07 0.06 0.05 0.04 0.04 0.05 0.05 0.05 0.04 0.04 0.04 0.04
0.04 0.04 0.04 0.04 0.05 0.06 0.06 0.06 0.06 0.05 0.05 0.05 0.05 0.05 0.05 0.05 0.04 0.04 0.04 0.05 0.06 0.06 0.07 0.07 0.07 0.06 0.05 0.05 0.05 0.04 0.04 0.04 0.04 0.04 0.04 0.04 0.03 0.03
0.02 0.02 0.03 0.03 0.03 0.03 0.03 0.04 0.04 0.05 0.05 0.06 0.05 0.05 0.05 0.04 0.03 0.03 0.03 0.04 0.04 0.04 0.04 0.05 0.07 0.08 0.07 0.06 0.04 0.05 0.04 0.04 0.03 0.04 0.04 0.03 0.03 0.03
0.01 0.01 0.02 0.03 0.03 0.03 0.03 0.03 0.03 0.04 0.04 0.05 0.05 0.05 0.04 0.03 0.02 0.02 0.03 0.03 0.03 0.04 0.05 0.07 0.07 0.07 0.06 0.05 0.05 0.04 0.04 0.04 0.04 0.03 0.03 0.03 0.02 0.02
0.01 0.02 0.02 0.03 0.03 0.04 0.04 0.04 0.04 0.04 0.04 0.04 0.04 0.05 0.04 0.03 0.03 0.02 0.03 0.03 0.04 0.04 0.06 0.07 0.08 0.08 0.09 0.08 0.08 0.06 0.05 0.04 0.04 0.04 0.03 0.03 0.03 0.03
0.01 0.02 0.02 0.04 0.05 0.05 0.04 0.04 0.03 0.03 0.03 0.03 0.03 0.04 0.04 0.03 0.02 0.02 0.02 0.03 0.03 0.04 0.03 0.05 0.06 0.07 0.08 0.08 0.09 0.08 0.08 0.07 0.06 0.06 0.06 0.05 0.04 0.03
0.02 0.02 0.03 0.04 0.05 0.04 0.03 0.03 0.03 0.03 0.03 0.04 0.04 0.04 0.05 0.05 0.03 0.03 0.03 0.03 0.03 0.04 0.04 0.05 0.07 0.08 0.07 0.07 0.06 0.07 0.08 0.09 0.07 0.06 0.04 0.04 0.05 0.04
0.02 0.03 0.03 0.02 0.02 0.02 0.02 0.02 0.02 0.02 0.02 0.03 0.03 0.04 0.06 0.09 0.09 0.06 0.05 0.04 0.03 0.04 0.05 0.06 0.08 0.08 0.08 0.07 0.08 0.07 0.07 0.08 0.07 0.06 0.04 0.03 0.03 0.04
MSLP
1013.75 1013.91 1014.10 1014.29 1014.44 1014.50 1014.45 1014.30 1014.03 1013.69 1013.31 1012.90 1012.50 1012.13 1011.80 1011.51 1011.27 1011.09 1010.97 1010.92 1010.94 1011.02 1011.15 1011.32 1011.48 1011.61 1011.67 1011.64 1011.51 1011.28 1010.99 1010.67 1010.36 1010.11 1009.95 1009.90 1009.95 1010.09
1013.58 1013.74 1013.92 1014.12 1014.28 1014.37 1014.38 1014.28 1014.09 1013.82 1013.49 1013.14 1012.77 1012.41 1012.06 1011.75 1011.48 1011.25 1011.08 1010.99 1010.98 1011.04 1011.18 1011.36 1011.55 1011.71 1011.81 1011.82 1011.72 1011.51 1011.23 1010.90 1010.56 1010.27 1010.05 1009.93 1009.91 1009.98
1013.33 1013.47 1013.65 1013.84 1014.01 1014.13 1014.19 1014.16 1014.05 1013.86 1013.61 1013.33 1013.01 1012.69 1012.36 1012.04 1011.74 1011.48 1011.27 1011.13 1011.08 1011.12 1011.23 1011.41 1011.61 1011.80 1011.94 1011.99 1011.94 1011.78 1011.54 1011.24 1010.91 1010.61 1010.36 1010.19 1010.12 1010.12
1013.02 1013.14 1013.30 1013.48 1013.67 1013.82 1013.92 1013.95 1013.91 1013.81 1013.66 1013.45 1013.21 1012.93 1012.64 1012.33 1012.03 1011.75 1011.51 1011.33 1011.23 1011.22 1011.30 1011.45 1011.64 1011.83 1012.00 1012.09 1012.10 1012.01 1011.83 1011.58 1011.30 1011.03 1010.79 1010.61 1010.50 1010.46
1012.66 1012.75 1012.90 1013.07 1013.26 1013.43 1013.57 1013.66 1013.69 1013.67 1013.59 1013.47 1013.30 1013.09 1012.85 1012.57 1012.29 1012.00 1011.74 1011.53 1011.38 1011.32 1011.35 1011.45 1011.60 1011.78 1011.95 1012.08 1012.13 1012.11 1012.01 1011.84 1011.64 1011.43 1011.23 1011.08 1010.97 1010.92
1012.24 1012.32 1012.44 1012.61 1012.80 1012.98 1013.15 1013.27 1013.36 1013.40 1013.39 1013.34 1013.24 1013.10 1012.91 1012.69 1012.44 1012.17 1011.91 1011.68 1011.49 1011.38 1011.34 1011.38 1011.48 1011.63 1011.78 1011.92 1012.01 1012.05 1012.03 1011.96 1011.85 1011.73 1011.61 1011.51 1011.44 1011.40
1011.76 1011.82 1011.93 1012.10 1012.28 1012.47 1012.65 1012.80 1012.91 1012.99 1013.03 1013.03 1013.00 1012.92 1012.80 1012.64 1012.44 1012.22 1011.98 1011.74 1011.53 1011.38 1011.28 1011.25 1011.29 1011.37 1011.49 1011.62 1011.73 1011.82 1011.87 1011.89 1011.89 1011.87 1011.85 1011.83 1011.82 1011.83
1011.19 1011.25 1011.36 1011.53 1011.72 1011.91 1012.09 1012.24 1012.36 1012.46 1012.52 1012.56 1012.57 1012.56 1012.50 1012.41 1012.28 1012.11 1011.92 1011.71 1011.50 1011.31 1011.17 1011.08 1011.05 1011.07 1011.14 1011.23 1011.34 1011.46 1011.57 1011.67 1011.76 1011.84 1011.92 1011.99 1012.06 1012.12
1010.55 1010.62 1010.75 1010.92 1011.12 1011.31 1011.49 1011.64 1011.75 1011.85 1011.92 1011.98 1012.02 1012.05 1012.06 1012.05 1011.99 1011.90 1011.77 1011.60 1011.42 1011.23 1011.06 1010.92 1010.82 1010.78 1010.78 1010.84 1010.93 1011.05 1011.19 1011.34 1011.50 1011.67 1011.83 1011.98 1012.12 1012.24
1009.88 1009.98 1010.14 1010.33 1010.54 1010.74 1010.91 1011.05 1011.16 1011.24 1011.30 1011.36 1011.43 1011.50 1011.57 1011.62 1011.64 1011.63 1011.58 1011.48 1011.34 1011.17 1010.99 1010.83 1010.68 1010.58 1010.53 1010.52 1010.58 1010.68 1010.82 1010.99 1011.19 1011.40 1011.62 1011.82 1012.01 1012.18
1009.24 1009.38 1009.58 1009.81 1010.04 1010.26 1010.43 1010.56 1010.65 1010.72 1010.77 1010.83 1010.91 1011.00 1011.12 1011.23 1011.33 1011.40 1011.43 1011.40 1011.32 1011.19 1011.03 1010.85 1010.68 1010.53 1010.43 1010.37 1010.38 1010.44 1010.55 1010.71 1010.91 1011.13 1011.35 1011.58 1011.79 1011.98
1008.73 1008.92 1009.16 1009.42 1009.68 1009.91 1010.09 1010.22 1010.30 1010.36 1010.40 1010.46 1010.54 1010.65 1010.80 1010.96 1011.12 1011.26 1011.36 1011.41 1011.39 1011.31 1011.18 1011.02 1010.84 1010.66 1010.52 1010.42 1010.37 1010.38 1010.44 1010.56 1010.72 1010.91 1011.11 1011.32 1011.51 1011.69
1008.41 1008.64 1008.91 1009.21 1009.50 1009.74 1009.93 1010.06 1010.14 1010.19 1010.23 1010.29 1010.37 1010.50 1010.66 1010.86 1011.06 1011.26 1011.42 1011.52 1011.56 1011.54 1011.45 1011.31 1011.14 1010.96 1010.80 1010.66 1010.56 1010.52 1010.52 1010.58 1010.67 1010.80 1010.95 1011.10 1011.25 1011.39
1008.33 1008.58 1008.88 1009.19 1009.49 1009.75 1009.95 1010.08 1010.17 1010.22 1010.26 1010.32 1010.40 1010.53 1010.71 1010.92 1011.15 1011.38 1011.58 1011.73 1011.82 1011.84 1011.79 1011.69 1011.55 1011.39 1011.22 1011.06 1010.93 1010.84 1010.78 1010.77 1010.79 1010.83 1010.90 1010.98 1011.06 1011.14
1008.48 1008.73 1009.02 1009.34 1009.63 1009.89 1010.09 1010.23 1010.33 1010.38 1010.43 1010.49 1010.59 1010.72 1010.90 1011.11 1011.35 1011.58 1011.80 1011.98 1012.11 1012.17 1012.17 1012.11 1012.01 1011.87 1011.72 1011.56 1011.41 1011.29 1011.18 1011.10 1011.04 1011.00 1010.98 1010.98 1010.98 1010.99
1008.80 1009.03 1009.30 1009.59 1009.87 1010.11 1010.30 1010.44 1010.54 1010.61 1010.68 1010.75 1010.85 1010.98 1011.16 1011.37 1011.60 1011.83 1012.05 1012.24 1012.39 1012.48 1012.52 1012.51 1012.45 1012.35 1012.23 1012.09 1011.95 1011.80 1011.66 1011.52 1011.39 1011.28 1011.18 1011.09 1011.02 1010.96
1009.21 1009.40 1009.62 1009.87 1010.10 1010.31 1010.49 1010.63 1010.74 1010.82 1010.90 1011.00 1011.11 1011.25 1011.43 1011.62 1011.84 1012.06 1012.27 1012.46 1012.62 1012.73 1012.81 1012.84 1012.83 1012.78 1012.70 1012.59 1012.46 1012.31 1012.14 1011.97 1011.80 1011.62 1011.45 1011.29 1011.16 1011.04
1009.58 1009.72 1009.89 1010.07 1010.26 1010.43 1010.58 1010.71 1010.83 1010.94 1011.04 1011.16 1011.30 1011.46 1011.63 1011.83 1012.04 1012.24 1012.44 1012.63 1012.78 1012.91 1013.01 1013.08 1013.11 1013.11 1013.07 1012.99 1012.89 1012.74 1012.58 1012.38 1012.17 1011.96 1011.74 1011.53 1011.35 1011.20
1009.80 1009.89 1010.00 1010.13 1010.26 1010.39 1010.52 1010.65 1010.77 1010.90 1011.04 1011.20 1011.37 1011.55 1011.75 1011.95 1012.15 1012.35 1012.54 1012.72 1012.88 1013.02 1013.14 1013.23 1013.30 1013.33 1013.32 1013.28 1013.20 1013.07 1012.90 1012.70 1012.47 1012.23 1011.99 1011.75 1011.54 1011.37
1009.79 1009.83 1009.89 1009.97 1010.05 1010.15 1010.26 1010.39 1010.53 1010.69 1010.88 1011.08 1011.29 1011.51 1011.73 1011.96 1012.17 1012.37 1012.56 1012.74 1012.90 1013.05 1013.18 1013.29 1013.38 1013.44 1013.46 1013.43 1013.36 1013.24 1013.08 1012.88 1012.64 1012.39 1012.14 1011.90 1011.68 1011.50
1009.50 1009.51 1009.53 1009.56 1009.61 1009.69 1009.79 1009.93 1010.10 1010.30 1010.53 1010.78 1011.04 1011.31 1011.58 1011.83 1012.07 1012.29 1012.49 1012.67 1012.84 1013.00 1013.14 1013.26 1013.36 1013.43 1013.46 1013.45 1013.38 1013.26 1013.10 1012.90 1012.66 1012.41 1012.16 1011.93 1011.72 1011.55
1008.92 1008.91 1008.90 1008.91 1008.94 1009.00 1009.11 1009.27 1009.47 1009.71 1009.99 1010.30 1010.62 1010.94 1011.25 1011.55 1011.82 1012.06 1012.29 1012.49 1012.68 1012.84 1013.00 1013.13 1013.24 1013.31 1013.34 1013.32 1013.25 1013.13 1012.97 1012.76 1012.53 1012.29 1012.06 1011.84 1011.66 1011.51
1008.10 1008.06 1008.04 1008.04 1008.06 1008.13 1008.25 1008.43 1008.67 1008.95 1009.28 1009.64 1010.01 1010.38 1010.74 1011.08 1011.39 1011.67 1011.93 1012.16 1012.37 1012.56 1012.73 1012.88 1012.99 1013.07 1013.10 1013.08 1013.00 1012.87 1012.70 1012.50 1012.28 1012.05 1011.84 1011.65 1011.50 1011.39
Thickness
5747 5745 5743 5742 5740 5739 5736 5733 5725 5720 5721 5728 5730 5734 5734 5733 5732 5731 5729 5729 5727 5725 5724 5722 5720 5719 5718 5717 5715 5713 5711 5710 5708 5707 5705 5704 5702 5701
5742 5740 5739 5737 5736 5735 5733 5731 5728 5723 5719 5724 5726 5728 5728 5728 5726 5725 5724 5724 5723 5721 5719 5718 5716 5714 5713 5712 5711 5709 5707 5705 5703 5702 5701 5699 5698 5696
5736 5734 5733 5732 5730 5729 5728 5727 5725 5721 5717 5720 5722 5723 5722 5721 5720 5719 5719 5718 5717 5716 5715 5713 5712 5710 5708 5707 5706 5704 5702 5700 5699 5697 5695 5694 5692 5691
5729 5728 5727 5726 5724 5723 5722 5721 5720 5718 5715 5712 5714 5715 5715 5715 5715 5713 5713 5713 5712 5712 5710 5709 5707 5706 5704 5702 5701 5699 5697 5695 5694 5692 5691 5689 5687 5686
5724 5722 5721 5719 5717 5717 5716 5715 5714 5714 5712 5709 5708 5708 5708 5708 5706 5706 5707 5707 5707 5707 5706 5704 5702 5700 5698 5696 5695 5694 5692 5690 5689 5687 5685 5683 5681 5680
5719 5717 5716 5714 5712 5711 5710 5709 5708 5706 5705 5703 5701 5701 5701 5701 5699 5697 5697 5698 5699 5700 5699 5698 5696 5694 5692 5690 5689 5688 5686 5684 5683 5681 5679 5677 5675 5674
5712 5711 5710 5710 5708 5707 5705 5703 5701 5699 5697 5695 5694 5693 5692 5692 5691 5692 5690 5691 5691 5692 5691 5691 5690 5688 5686 5684 5682 5681 5679 5678 5676 5675 5673 5671 5669 5667
5704 5704 5703 5702 5701 5700 5699 5698 5696 5693 5690 5688 5687 5685 5685 5686 5686 5686 5683 5681 5680 5685 5682 5682 5682 5680 5680 5678 5677 5675 5673 5671 5670 5668 5666 5665 5662 5661
5697 5695 5695 5695 5693 5692 5691 5691 5690 5689 5687 5684 5681 5680 5680 5681 5680 5679 5677 5675 5674 5676 5674 5672 5673 5672 5673 5672 5670 5669 5666 5664 5663 5661 5659 5657 5655 5654
5689 5687 5685 5685 5685 5683 5682 5681 5681 5681 5680 5679 5678 5677 5678 5677 5676 5675 5673 5670 5670 5669 5667 5662 5664 5663 5665 5663 5662 5661 5659 5657 5655 5654 5652 5650 5648 5646
5680 5679 5678 5676 5676 5675 5673 5672 5671 5672 5674 5673 5673 5672 5672 5671 5670 5667 5664 5661 5659 5659 5659 5655 5655 5654 5654 5654 5654 5653 5651 5649 5647 5646 5644 5642 5640 5639
5671 5670 5669 5668 5667 5665 5663 5662 5661 5663 5663 5663 5663 5663 5663 5663 5662 5660 5657 5653 5650 5649 5651 5648 5647 5645 5643 5645 5644 5643 5642 5641 5640 5638 5637 5635 5633 5631
5660 5660 5660 5659 5658 5657 5655 5653 5653 5654 5653 5652 5652 5652 5652 5652 5651 5651 5650 5647 5643 5642 5644 5642 5639 5637 5635 5634 5634 5634 5634 5633 5632 5630 5629 5628 5627 5625
5652 5652 5651 5650 5649 5647 5646 5646 5645 5644 5642 5641 5641 5641 5641 5641 5641 5641 5641 5640 5639 5637 5637 5635 5632 5630 5627 5624 5624 5625 5625 5625 5624 5623 5622 5621 5620 5619
5643 5643 5642 5641 5640 5638 5638 5637 5635 5634 5632 5630 5630 5630 5631 5631 5632 5632 5632 5631 5630 5630 5629 5628 5626 5623 5620 5618 5616 5615 5615 5616 5616 5615 5614 5613 5612 5611
5633 5633 5633 5631 5630 5629 5628 5626 5625 5623 5622 5621 5621 5621 5620 5621 5621 5621 5620 5620 5618 5618 5618 5618 5617 5615 5612 5611 5609 5608 5608 5607 5608 5607 5606 5605 5605 5604
5623 5622 5621 5620 5618 5618 5617 5616 5615 5614 5612 5612 5611 5610 5609 5609 5609 5609 5608 5608 5607 5607 5606 5606 5606 5606 5605 5604 5602 5601 5600 5600 5600 5599 5597 5597 5597 5597
5613 5611 5610 5609 5607 5607 5606 5605 5605 5604 5603 5602 5600 5600 5598 5598 5598 5597 5597 5596 5595 5595 5595 5595 5595 5595 5594 5594 5595 5593 5592 5591 5591 5591 5590 5589 5590 5591
5603 5602 5600 5599 5598 5598 5596 5595 5594 5594 5593 5592 5591 5590 5589 5588 5587 5586 5586 5585 5585 5585 5584 5584 5583 5583 5582 5583 5584 5585 5584 5584 5582 5582 5581 5582 5583 5584
5594 5593 5592 5591 5590 5589 5587 5586 5585 5584 5583 5582 5581 5580 5580 5578 5577 5576 5575 5575 5574 5574 5574 5574 5573 5573 5573 5574 5574 5576 5577 5576 5575 5574 5574 5573 5574 5575
5586 5584 5583 5582 5581 5580 5578 5577 5576 5575 5574 5572 5571 5571 5569 5568 5568 5567 5566 5565 5565 5564 5564 5565 5566 5567 5566 5565 5564 5566 5568 5570 5569 5568 5567 5565 5564 5564
5577 5576 5575 5573 5572 5570 5569 5568 5566 5565 5564 5563 5562 5562 5561 5560 5559 5559 5558 5557 5556 5556 5556 5556 5557 5556 5555 5555 5555 5556 5558 5560 5561 5561 5561 5561 5559 5558
5569 5567 5566 5564 5563 5561 5560 5559 5557 5556 5554 5554 5553 5553 5552 5552 5552 5551 5550 5550 5549 5548 5547 5547 5547 5546 5546 5545 5545 5545 5547 5548 5550 5551 5551 5553 5555 5557